Regional Weather Roundup
Issued by NWS

Home | Current Version | Previous Version | Graphics & Text | Print | Product List | Glossary On
Versions: 1 2 3 4 5 6 7 8 9 10 11 12 13 14 15 16 17 18 19 20 21 22 23 24 25 26 27 28 29 30 31 32 33 34 35 36 37 38 39 40 41 42 43 44 45 46 47 48 49 50
000
ASUS43 KMKX 052111
RWRWI

WISCONSIN REGIONAL WEATHER ROUNDUP
NATIONAL WEATHER SERVICE MILWAUKEE/SULLIVAN WI
400 PM CDT TUE MAY 05 2015

NOTE: "FAIR" INDICATES FEW OR NO CLOUDS BELOW 12,000 FEET WITH NO
SIGNIFICANT WEATHER AND/OR OBSTRUCTIONS TO VISIBILITY.

WIZ001-002-006>008-014>016-023>028-052200-
NORTHWEST WISCONSIN

CITY           SKY/WX    TMP DP  RH WIND       PRES   REMARKS
SUPERIOR ARPT  SUNNY     54  31  42 E10       30.19S
ASHLAND        SUNNY     67  40  37 NE14      30.19F
HAYWARD        SUNNY     72  26  18 S14G23    30.18F
SIREN          SUNNY     73  31  21 SE10G22   30.16F
CUMBERLAND     SUNNY     70  30  23 SE16G22   30.18F
RICE LAKE      SUNNY     72  30  21 SE18      30.20F
CHETEK         SUNNY     69  35  28 MISG      30.19F
LADYSMITH      SUNNY     72  29  20 SE10      30.22F
EAU CLAIRE     PTSUNNY   68  30  24 SE7G20    30.19F
MENOMONIE      CLOUDY    67  30  24 SE14      30.19F
NEW RICHMOND   PTSUNNY   69  36  29 SE9       30.17F
OSCEOLA        MOSUNNY   70  40  33 SE15G21   30.19F
$$

WIZ003>005-009-010-017-018-052200-
NORTH CENTRAL WISCONSIN

CITY           SKY/WX    TMP DP  RH WIND       PRES   REMARKS
MANITOWISH WTR SUNNY     70  32  24 S10       30.22F
ARBOR VITAE    SUNNY     72  28  19 SE12G17   30.22F
WOODRUFF       SUNNY     72  28  19 SE12G17   30.22F
RHINELANDER    SUNNY     68  29  23 S5G20     30.25S
EAGLE RIVER    SUNNY     69  25  18 S5        30.23F
LAND O LAKES   SUNNY     71  23  16 SE7       30.23F
PHILLIPS         N/A     69  29  22 SE9       30.22S
TOMAHAWK       SUNNY     70  28  20 CALM      30.24F
MEDFORD        MOSUNNY   66  26  22 SE14G20   30.23F
MERRILL        MOSUNNY   68  25  19 SE13      30.25S
$$

WIZ029-030-035-036-043>047-052200-
CENTRAL WISCONSIN

CITY           SKY/WX    TMP DP  RH WIND       PRES   REMARKS
WAUSAU         MOSUNNY   68  22  17 SE15G21   30.23F
MOSINEE        SUNNY     64  21  19 SE16      30.26S
MARSHFIELD     CLOUDY    65  32  29 SE15      30.24F
STEVENS POINT  PTSUNNY   63  25  23 SE13G18   30.26F
WAUPACA          N/A    N/A N/A N/A MISG        N/A
WAUTOMA        CLOUDY    63  43  48 E9        30.26F
WISC RAPIDS    CLOUDY    64  33  31 SE14      30.25F
CAMP DOUGLAS   LGT RAIN  57  54  88 E10       30.23F
$$

WIZ011>013-019>022-031-037>040-048>050-052200-
NORTHEAST WISCONSIN

CITY           SKY/WX    TMP DP  RH WIND       PRES   REMARKS
ANTIGO         MOSUNNY   65  29  26 SE15      30.26F
SHAWANO        PTSUNNY   66  19  16 E12       30.28S
OCONTO         MOSUNNY   65  27  23 E8        30.28F
STURGEON BAY   MOSUNNY   63  25  23 E7        30.31F
GREEN BAY      PTSUNNY   65  21  18 SE13      30.28F
MANITOWOC      PTSUNNY   57  35  43 SE7       30.29F
APPLETON       PTSUNNY   64  34  32 SE12      30.27F
CLINTONVILLE   CLOUDY    64  18  16 SE12      30.27S
OSHKOSH        CLOUDY    60  45  57 SE9       30.26F
$$

WIZ032>034-041-042-053>061-052200-
SOUTHWEST WISCONSIN

CITY           SKY/WX    TMP DP  RH WIND       PRES   REMARKS
LA CROSSE      LGT RAIN  58  51  78 SE8       30.21F
SPARTA         CLOUDY    58  47  67 E10       30.23F
VIROQUA        CLOUDY    52  52 100 E14       30.21F
BOSCOBEL       LGT RAIN  55  53  93 NE6       30.21F FOG
PRAIRIE DU CHI CLOUDY    54  53  96 E7        30.19F
PLATTEVILLE    CLOUDY    56  54  93 E17       30.19F
$$

WIZ056-057-062-063-064-067-068-052200-
SOUTH CENTRAL WISCONSIN

CITY           SKY/WX    TMP DP  RH WIND       PRES   REMARKS
REEDSBURG      CLOUDY    54  51  91 E8        30.24F
BARABOO/DELLS  NOT AVBL
LONE ROCK      CLOUDY    56  51  84 E12       30.23F
MINERAL POINT  CLOUDY    55  52  88 E10       30.21F
MADISON        LGT RAIN  55  50  83 E10       30.23F
MIDDLETON      CLOUDY    56  53  89 E7        30.23F
WATERTOWN      CLOUDY    55  52  88 E12       30.23F
MONROE         CLOUDY    52  52 100 NE10      30.20F
JANESVILLE     LGT RAIN  54  52  94 E12G17    30.22
$$

WIZ051-052-058>065-066-070>072-052200-
SOUTHEAST WISCONSIN

CITY           SKY/WX    TMP DP  RH WIND       PRES   REMARKS
MILWAUKEE      CLOUDY    48  44  86 E9        30.27F
WAUKESHA       CLOUDY    48  45  87 E10       30.27F
MILWAUKEE/TIMM CLOUDY    50  43  76 E8        30.28F
RACINE         LGT RAIN  47  44  90 NE10      30.27F
BURLINGTON     RAIN      46  45  95 E7        30.25F
KENOSHA        LGT RAIN  47  45  93 NE13      30.26F
FOND DU LAC    CLOUDY    57  45  64 SE10      30.26F
SHEBOYGAN      PTSUNNY   56  45  66 SE6       30.28F
WEST BEND      CLOUDY    52  43  71 E8        30.27F
JUNEAU         CLOUDY    55  47  76 E14       30.25F
$$

LSZ147-162-052200-
LAKE SUPERIOR

STATION/POSITION TIME  TEMP    WIND        PRES    WAVE
                       AIR SEA DIR/SP/G            HT/PER
                 (UTC) (F)     (DEG/KT/KT) (MB)    (FT/S)
W MID LAKE BUOY  2050   40 36   30/  8/ 10 1024.4F
DEVILS ISLAND    2100   43      70/ 12/ 13 1023.7F
PORT WING        2040   46      20/ 19/ 23 1021.7F
SAXON HARBOR     2000   48     330/  2/  6 1023.4
$$

LMZ867-665-643>646-052200-
LAKE MICHIGAN

STATION/POSITION TIME  TEMP    WIND        PRES    WAVE
                       AIR SEA DIR/SP/G            HT/PER
                 (UTC) (F)     (DEG/KT/KT) (MB)    (FT/S)
CHAMBERS ISLAND  2000   50     330/  4/  6 1026.4F
NORTHPORT PIER   2000   50     130/  4/  5 1026.4F
SISTER BAY       2017   69     120/  9/ 13   N/A
KEWAUNEE LAKESHO 2000   47      40/  3/  6 1025.3F
SHEBOYGAN LAKESH 2100   44      10/  5/  5 1026.3F
PORT WASHINGTON  2000   49      40/  6/  7 1026.4
ATWATER BUOY     2000   45     350/  6/  8 1026.8F
MILWAUKEE LAKESH 2000   45      40/  8/  9   N/A
KENOSHA   LAKESH 2100   44      30/ 11/ 14 1024.4F
$$

TC  - TEMPERATURE IN CELSIUS
VSB - VISIBILITY IN STATUTE MILES
WCI - WIND CHILL INDEX
HX  - HEAT INDEX



USA.gov is the U.S. government's official web portal to all federal, state and local government web resources and services.